Regional Weather Roundup
Issued by NWS

Home | Current Version | Previous Version | Graphics & Text | Print | Product List | Glossary On
Versions: 1 2 3 4 5 6 7 8 9 10 11 12 13 14 15 16 17 18 19 20 21 22 23 24 25 26 27 28 29 30 31 32 33 34 35 36 37 38 39 40 41 42 43 44 45 46 47 48 49 50
000
ASUS43 KFSD 201710
RWRSD

WEATHER ROUNDUP FOR SOUTH DAKOTA
NATIONAL WEATHER SERVICE SIOUX FALLS SD
1200 PM CDT FRI APR 20 2018

NOTE: "FAIR" INDICATES FEW OR NO CLOUDS BELOW 12,000 FEET WITH NO
SIGNIFICANT WEATHER AND/OR OBSTRUCTIONS TO VISIBILITY.


SDZ001>005-009-010-012>017-201800-
NORTHWEST AND NORTH CENTRAL SOUTH DAKOTA

CITY           SKY/WX    TMP DP  RH WIND       PRES   REMARKS
BUFFALO          N/A     48  28  46 SE15      30.08
FAITH            N/A     47  33  58 SE18      30.19F
MOBRIDGE       PTSUNNY   51  33  50 SE16      30.27S
$$

SDZ012>016-024>037-041>051-057-063-072>074-201800-
SOUTHWEST AND SOUTH CENTRAL SOUTH DAKOTA

CITY           SKY/WX    TMP DP  RH WIND       PRES   REMARKS
RAPID CTY ARPT PTSUNNY   52  31  44 S15G24    30.14F
PIERRE         CLOUDY    46  34  62 SE14      30.28F
CUSTER         PTSUNNY   41  26  55 SE13G20   30.10S
ELLSWORTH AFB  PTSUNNY   51  31  45 S16       30.13F
PHILIP         CLOUDY    49  34  56 E12       30.22S
PINE RIDGE     CLOUDY    49  30  48 SE16G26   30.15R
SPEARFISH      PTSUNNY   48  30  49 SE14      30.10R
WINNER         FAIR      46  32  58 SE12      30.29S
$$

SDZ004>011-016>023-039-040-201800-
NORTHEAST SOUTH DAKOTA

CITY           SKY/WX    TMP DP  RH WIND       PRES   REMARKS
ABERDEEN       PTSUNNY   48  33  56 SE8       30.38F
WATERTOWN      MOSUNNY   44  34  67 S12       30.39F
BROOKINGS      CLOUDY    43  32  65 SE12      30.41F
SISSETON         N/A     48  34  58 SE9       30.41F
$$

SDZ017-020-022-023-036>040-048>070-201800-
SOUTHEAST SOUTH DAKOTA

CITY           SKY/WX    TMP DP  RH WIND       PRES   REMARKS
SIOUX FALLS    CLOUDY    43  31  62 E8        30.41F
HURON          CLOUDY    40  30  67 SE10      30.38F
CHAMBERLAIN    CLOUDY    47  37  68 SE12      30.32S
MITCHELL       CLOUDY    40  32  73 SE12      30.38F
YANKTON        CLOUDY    46  34  62 SE10      30.38F
$$

ABBREVIATIONS USED IN REMARKS
   TC - TEMPERATURE IN CELSIUS
  WCI - WIND CHILL INDEX
   HX - HEAT INDEX
  VSB - VISIBILITY




USA.gov is the U.S. government's official web portal to all federal, state and local government web resources and services.